Stündliche Wetter Cayo Largo

Heute, 18 Januar, Montag

Zeit Temperatur Niederschläge Wind Luftdruck Luftfeuchtigkeit
00:00 +19°C° 0 mm 2 m/S 761 mmHg 82%
01:00 +19°C° 0 mm 2 m/S 761 mmHg 82%
02:00 +19°C° 0 mm 2 m/S 761 mmHg 82%
03:00 +19°C° 0 mm 2 m/S 761 mmHg 82%
04:00 +19°C° 0 mm 2 m/S 761 mmHg 83%
05:00 +19°C° 0 mm 2 m/S 762 mmHg 83%
06:00 +18°C° 0 mm 2 m/S 762 mmHg 84%
07:00 +20°C° 0 mm 2 m/S 762 mmHg 78%
08:00 +21°C° 0 mm 2 m/S 763 mmHg 72%
09:00 +24°C° 0 mm 3 m/S 763 mmHg 66%
10:00 +25°C° 0 mm 3 m/S 763 mmHg 62%
11:00 +26°C° 0 mm 3 m/S 763 mmHg 59%
12:00 +27°C° 0 mm 3 m/S 763 mmHg 56%
13:00 +26°C° 0 mm 3 m/S 762 mmHg 59%
14:00 +26°C° 0 mm 3 m/S 762 mmHg 62%
15:00 +26°C° 0 mm 4 m/S 761 mmHg 65%
16:00 +24°C° 0 mm 3 m/S 762 mmHg 70%
17:00 +22°C° 0 mm 3 m/S 762 mmHg 76%
18:00 +21°C° 0 mm 3 m/S 763 mmHg 81%
19:00 +20°C° 0 mm 3 m/S 763 mmHg 85%
20:00 +19°C° 0 mm 3 m/S 763 mmHg 88%
21:00 +19°C° 0 mm 3 m/S 763 mmHg 91%
22:00 +19°C° 0 mm 3 m/S 763 mmHg 92%
23:00 +18°C° 0 mm 3 m/S 763 mmHg 93%

Morgen, 19 Januar, Dienstag

Zeit Temperatur Niederschläge Wind Luftdruck Luftfeuchtigkeit
00:00 +18°C° 0 mm 3 m/S 763 mmHg 93%
01:00 +18°C° 0 mm 3 m/S 763 mmHg 93%
02:00 +18°C° 0 mm 3 m/S 763 mmHg 94%
03:00 +18°C° 0 mm 3 m/S 762 mmHg 94%
04:00 +18°C° 0 mm 3 m/S 763 mmHg 93%
05:00 +18°C° 0 mm 3 m/S 763 mmHg 93%
06:00 +18°C° 0 mm 3 m/S 764 mmHg 93%
07:00 +20°C° 0 mm 4 m/S 764 mmHg 86%
08:00 +22°C° 0 mm 5 m/S 764 mmHg 80%
09:00 +23°C° 0 mm 6 m/S 765 mmHg 73%
10:00 +24°C° 0 mm 6 m/S 765 mmHg 71%
11:00 +26°C° 0 mm 6 m/S 764 mmHg 69%
12:00 +27°C° 0 mm 6 m/S 764 mmHg 67%
13:00 +27°C° 0 mm 5 m/S 764 mmHg 67%
14:00 +27°C° 0 mm 5 m/S 763 mmHg 67%
15:00 +27°C° 0 mm 5 m/S 763 mmHg 67%
16:00 +25°C° 0 mm 4 m/S 763 mmHg 72%
17:00 +23°C° 0 mm 4 m/S 764 mmHg 77%
18:00 +22°C° 0 mm 4 m/S 764 mmHg 83%
19:00 +21°C° 0 mm 4 m/S 764 mmHg 85%
20:00 +20°C° 0 mm 4 m/S 765 mmHg 87%
21:00 +20°C° 0 mm 4 m/S 765 mmHg 89%
22:00 +20°C° 0 mm 4 m/S 765 mmHg 90%
23:00 +19°C° 0 mm 4 m/S 765 mmHg 91%

übermorgen, 20 Januar, Mittwoch

Zeit Temperatur Niederschläge Wind Luftdruck Luftfeuchtigkeit
00:00 +19°C° 0 mm 3 m/S 765 mmHg 92%
01:00 +19°C° 0 mm 3 m/S 764 mmHg 92%
02:00 +19°C° 0 mm 3 m/S 764 mmHg 92%
03:00 +19°C° 0 mm 3 m/S 763 mmHg 92%
04:00 +18°C° 0 mm 3 m/S 764 mmHg 92%
05:00 +18°C° 0 mm 3 m/S 764 mmHg 92%
06:00 +18°C° 0 mm 3 m/S 764 mmHg 92%
07:00 +20°C° 0 mm 4 m/S 764 mmHg 85%
08:00 +22°C° 0 mm 4 m/S 765 mmHg 78%
09:00 +25°C° 0 mm 5 m/S 765 mmHg 71%
10:00 +26°C° 0 mm 5 m/S 765 mmHg 68%
11:00 +26°C° 0 mm 5 m/S 765 mmHg 64%
12:00 +27°C° 0 mm 5 m/S 764 mmHg 61%
13:00 +27°C° 0 mm 5 m/S 764 mmHg 62%
14:00 +27°C° 0 mm 5 m/S 763 mmHg 62%
15:00 +26°C° 0 mm 5 m/S 763 mmHg 62%
16:00 +25°C° 0 mm 5 m/S 763 mmHg 69%
17:00 +22°C° 0 mm 4 m/S 763 mmHg 75%
18:00 +20°C° 0 mm 4 m/S 763 mmHg 81%
19:00 +19°C° 0 mm 4 m/S 763 mmHg 84%
20:00 +19°C° 0 mm 4 m/S 763 mmHg 88%
21:00 +18°C° 0 mm 3 m/S 763 mmHg 91%
22:00 +18°C° 0 mm 3 m/S 763 mmHg 91%
23:00 +18°C° 0 mm 3 m/S 763 mmHg 91%

21 Januar, Donnerstag

Zeit Temperatur Niederschläge Wind Luftdruck Luftfeuchtigkeit
00:00 +17°C° 0 mm 3 m/S 763 mmHg 91%
01:00 +17°C° 0 mm 3 m/S 762 mmHg 92%
02:00 +17°C° 0 mm 3 m/S 762 mmHg 92%
03:00 +17°C° 0 mm 3 m/S 762 mmHg 93%
04:00 +17°C° 0 mm 3 m/S 762 mmHg 93%
05:00 +17°C° 0 mm 3 m/S 762 mmHg 93%
06:00 +16°C° 0 mm 3 m/S 762 mmHg 94%
07:00 +18°C° 0 mm 4 m/S 763 mmHg 87%
08:00 +20°C° 0 mm 4 m/S 763 mmHg 80%
09:00 +22°C° 0 mm 5 m/S 763 mmHg 73%
10:00 +25°C° 0 mm 5 m/S 763 mmHg 67%
11:00 +26°C° 0 mm 4 m/S 762 mmHg 62%
12:00 +27°C° 0 mm 4 m/S 762 mmHg 56%
13:00 +27°C° 0 mm 4 m/S 762 mmHg 57%
14:00 +26°C° 0 mm 4 m/S 761 mmHg 57%
15:00 +26°C° 0 mm 4 m/S 761 mmHg 58%
16:00 +24°C° 0 mm 3 m/S 761 mmHg 66%
17:00 +23°C° 0 mm 2 m/S 761 mmHg 73%
18:00 +20°C° 0 mm 2 m/S 761 mmHg 81%
19:00 +19°C° 0 mm 2 m/S 761 mmHg 83%
20:00 +19°C° 0 mm 2 m/S 761 mmHg 86%
21:00 +19°C° 0 mm 2 m/S 761 mmHg 89%
22:00 +18°C° 0 mm 2 m/S 761 mmHg 91%
23:00 +18°C° 0 mm 2 m/S 761 mmHg 92%

22 Januar, Freitag

Zeit Temperatur Niederschläge Wind Luftdruck Luftfeuchtigkeit
00:00 +18°C° 0 mm 2 m/S 761 mmHg 94%
01:00 +18°C° 0 mm 2 m/S 760 mmHg 95%
02:00 +18°C° 0 mm 2 m/S 760 mmHg 95%
03:00 +18°C° 0 mm 2 m/S 760 mmHg 96%
04:00 +18°C° 0 mm 2 m/S 760 mmHg 95%
05:00 +17°C° 0 mm 2 m/S 760 mmHg 95%
06:00 +17°C° 0 mm 2 m/S 761 mmHg 95%
07:00 +19°C° 0 mm 2 m/S 761 mmHg 88%
08:00 +21°C° 0 mm 2 m/S 762 mmHg 81%
09:00 +24°C° 0 mm 2 m/S 762 mmHg 74%
10:00 +26°C° 0 mm 2 m/S 762 mmHg 69%
11:00 +27°C° 0 mm 2 m/S 761 mmHg 64%
12:00 +28°C° 0 mm 2 m/S 761 mmHg 58%
13:00 +28°C° 0 mm 2 m/S 761 mmHg 58%
14:00 +28°C° 0 mm 2 m/S 760 mmHg 58%
15:00 +28°C° 0 mm 2 m/S 760 mmHg 58%
16:00 +26°C° 0 mm 2 m/S 760 mmHg 69%
17:00 +24°C° 0 mm 1 m/S 760 mmHg 79%
18:00 +22°C° 0 mm 1 m/S 760 mmHg 90%
19:00 +22°C° 0 mm 1 m/S 761 mmHg 91%
20:00 +21°C° 0 mm 1 m/S 761 mmHg 92%
21:00 +21°C° 0 mm 1 m/S 761 mmHg 93%
22:00 +20°C° 0 mm 1 m/S 761 mmHg 93%
23:00 +20°C° 0 mm 1 m/S 761 mmHg 94%

23 Januar, Samstag

Zeit Temperatur Niederschläge Wind Luftdruck Luftfeuchtigkeit
00:00 +19°C° 0 mm 2 m/S 760 mmHg 94%
01:00 +19°C° 0 mm 2 m/S 760 mmHg 93%
02:00 +19°C° 0 mm 2 m/S 760 mmHg 93%
03:00 +19°C° 0 mm 1 m/S 760 mmHg 93%
04:00 +18°C° 0 mm 2 m/S 760 mmHg 93%
05:00 +18°C° 0 mm 2 m/S 760 mmHg 92%
06:00 +18°C° 0 mm 2 m/S 761 mmHg 92%
07:00 +20°C° 0 mm 2 m/S 761 mmHg 85%
08:00 +23°C° 0 mm 2 m/S 762 mmHg 78%
09:00 +25°C° 0 mm 2 m/S 762 mmHg 71%
10:00 +26°C° 0 mm 3 m/S 762 mmHg 66%
11:00 +27°C° 0 mm 3 m/S 762 mmHg 61%
12:00 +29°C° 0 mm 3 m/S 761 mmHg 56%
13:00 +29°C° 0 mm 3 m/S 761 mmHg 56%
14:00 +28°C° 0 mm 3 m/S 760 mmHg 56%
15:00 +28°C° 0 mm 3 m/S 760 mmHg 56%
16:00 +26°C° 0 mm 3 m/S 760 mmHg 64%
17:00 +24°C° 0 mm 2 m/S 760 mmHg 73%
18:00 +21°C° 0 mm 2 m/S 761 mmHg 81%
19:00 +21°C° 0 mm 2 m/S 761 mmHg 85%
20:00 +20°C° 0 mm 2 m/S 761 mmHg 88%
21:00 +20°C° 0 mm 3 m/S 762 mmHg 92%
22:00 +20°C° 0 mm 3 m/S 761 mmHg 92%
23:00 +19°C° 0 mm 3 m/S 761 mmHg 93%
Mehr zeigen

Wir brauchen deine Erlaubnis

Meteoprog und unser Service Anbieter werden persönliche Daten aufbewahren, so wie Cookies, Geräte Bezeichnung oder ähnliche Technologien von deinem Gerät und Prozess, so wie Persönliche Daten Inhalte und Werbungen, genauso wie social Media und den Verkehr zu analysieren.

  • Aufbewahrung und/oder Zugang zu deiner Geräte Informationen.

    Cookies, Geräte Bezeichnung oder andere Informationen, können aufbewahrt oder Zugang zu deinem Gerät erhalten, für den Grund, der oben angegeben wird.

  • Personalisierte Werbung und Inhalte, Messungen, Einblick in das Publikum und Produkt Entwicklung.

    Werbungen und Inhalte können personalisiert werden, basierend auf ein Profil. Mehr Daten können besser personalisierte Werbungen und Inhalte hinzufügen. Werbung und Inhalte können gezeigt und gemessen werden. Einblicke über das Publikum, welche die Werbung gesehen haben und den Inhalt, können abgeleitet werden. So wie Daten können genutzt werden, um es zu verbessern oder die Benutzer Erfahrung zu verbessern das System und die Software.

Wenn du “Ich stimme zu” klickst, erlaubst du uns, die Cookies zu benutzen die Geräte Bezeichnung, den Web oder ähnliche Technologien zu benutzen. Deine Settings, können in deinem Gerät bei deinem Browser geändert werden.

Für den bestimmten Zweck, berechtigten Interessen beruhen darauf, mehr als auf den Inhalt. Du kannst mehr darüber in unseren Privaten und Cookie Politik lesen.